Location: Unspecified
(0.0000°N, 0.0000°E)
Time: 12:50:46
(UTC+00:00)

Explorer 7 - Pass Details

Date: 07 October 2022
Orbit: 481 x 665 km, 50.3° (Epoch: 04 December)

Event Time Altitude Azimuth Distance (km) Brightness Sun altitude
Rises 18:31:11 0° 304° (WNW) 2,709 11.2 -10.8°
Reaches altitude 10° 18:33:44 10° 291° (WNW) 1,783 10.5 -11.4°
Maximum altitude 18:37:07 25° 234° (SW) 1,057 9.0 -12.3°
Drops below altitude 10° 18:40:22 10° 176° (S) 1,709 9.4 -13.1°
Sets 18:42:46 0° 163° (SSE) 2,571 10.1 -13.7°
